Overview Statistics Trail Chart Weather Telemetry Raw packets
 

This is the latest recevied weather packets stored in our database for station/object 4S6DRJ-13. If no packets are shown the sender has not sent any weather packets the latest 10 day(s).

<< 342 343 344 345 346 347 348 >>
Time Temp. Humidity Pressure Rain* Wind** Luminosity Snow
1787955035 27.78° C 85% 1008.8 hPa 0 mm 0.45 m/s, 138° 0 W/m² -
1787954973 27.78° C 85% 1008.8 hPa 0 mm 1.79 m/s, 249° 0 W/m² -
1787954912 27.78° C 85% 1008.8 hPa 0 mm 0.45 m/s, 223° 0 W/m² -
1787954851 27.78° C 85% 1008.9 hPa 0 mm 1.34 m/s, 223° 0 W/m² -
1787954792 27.78° C 85% 1008.9 hPa 0 mm 0.45 m/s, 235° 0 W/m² -
1787954730 27.78° C 85% 1008.9 hPa 0 mm 0.45 m/s, 228° 0 W/m² -
1787954669 27.78° C 85% 1008.9 hPa 0 mm 0 m/s 0 W/m² -
1787954608 27.78° C 85% 1008.9 hPa 0 mm 0.45 m/s, 219° 0 W/m² -
1787954547 27.78° C 85% 1008.8 hPa 0 mm 1.34 m/s, 239° 0 W/m² -
1787954486 27.78° C 85% 1008.8 hPa 0 mm 1.79 m/s, 288° 0 W/m² -
1787954425 27.78° C 85% 1008.9 hPa 0 mm 1.79 m/s, 238° 0 W/m² -
1787954364 27.78° C 85% 1008.8 hPa 0 mm 0.45 m/s, 221° 0 W/m² -
1787954303 27.78° C 85% 1008.9 hPa 0 mm 0.89 m/s, 230° 0 W/m² -
1787954242 27.78° C 85% 1008.7 hPa 0 mm 0.89 m/s, 198° 0 W/m² -
1787954181 27.78° C 85% 1008.7 hPa 0 mm 0.89 m/s, 192° 0 W/m² -
1787954120 27.78° C 85% 1008.8 hPa 0 mm 1.79 m/s, 275° 0 W/m² -
1787954058 27.78° C 85% 1008.8 hPa 0 mm 1.79 m/s, 227° 0 W/m² -
1787953998 27.78° C 85% 1008.8 hPa 0 mm 0 m/s 0 W/m² -
1787953937 27.78° C 85% 1008.8 hPa 0 mm 0.45 m/s, 267° 0 W/m² -
1787953876 27.78° C 85% 1008.9 hPa 0 mm 0.89 m/s, 30° 0 W/m² -
1787953819 27.78° C 85% 1008.8 hPa 0 mm 2.24 m/s, 195° 0 W/m² -
1787953754 27.78° C 85% 1008.7 hPa 0 mm 1.34 m/s, 225° 0 W/m² -
1787953693 27.78° C 86% 1008.8 hPa 0 mm 0.45 m/s, 242° 0 W/m² -
1787953632 27.78° C 86% 1008.8 hPa 0 mm 0.89 m/s, 268° 0 W/m² -
1787953571 27.78° C 86% 1008.8 hPa 0 mm 0.89 m/s, 231° 0 W/m² -

* Rain latest hour (hover to see other rain measurements)
** Current wind speed in m/s (hover to see current wind gust speed)